Edmonton, Alberta

8:12 AM MDT on August 21, 2014 (GMT -0600)
South Park | Change Station
CLOSE
Current Station
Personal Weather Station
Location: Leduc, ALBERTA
Elevation: 2408 ft
Nearby Weather Stations

Elev 2408 ft 53.25 °N, 113.54 °W | Updated 19 seconds ago

Mostly Cloudy
Mostly Cloudy
49.6 °F
Feels Like 48 °F
N
4.6
Wind Variable Wind from WNW
Gusts 4.6 mph

Today is forecast to be nearly the same temperature as yesterday.

Today
High -- | Low -- °F
--% Chance of Precip.
Yesterday
High -- | Low -- °F
Precip. -- in
6:25 AM 8:48 PM
Waning Crescent, 14% visible
Pressure 30.21 in
Visibility 12.0 miles
Clouds Scattered Clouds 200 ft
Mostly Cloudy 2200 ft
Mostly Cloudy 2900 ft
Windchill 48 °F
Dew Point 44 °F
Humidity 81%
Rainfall 0.00 in
Snow Depth Not available.
UV 0 out of 12
Pollen Not available.
Air Quality Not available.
Flu Activity Not available.
SPECI CYEG 211403Z 27005KT 12SM SCT002 BKN022 BKN029 09/08 A3017 RMK SF3SC2SC2 CIG RAG SLP228

More Conditions Fewer Conditions

Pressure 30.21 in
Visibility 12.0 miles
Clouds Scattered Clouds 200 ft
Mostly Cloudy 2200 ft
Mostly Cloudy 2900 ft
Windchill 48 °F
Dew Point 44 °F
Humidity 81%
Rainfall 0.00 in
Snow Depth Not available.
UV 0 out of 12
Pollen Not available.
Air Quality Not available.
Flu Activity Not available.
SPECI CYEG 211403Z 27005KT 12SM SCT002 BKN022 BKN029 09/08 A3017 RMK SF3SC2SC2 CIG RAG SLP228

More Conditions Fewer Conditions

10-Day Weather Forecast

Almanac

Astronomy

Aug. 21, 2014 Rise Set
Actual Time 6:25 AM MDT 8:48 PM MDT
Civil Twilight 5:46 AM MDT 9:26 PM MDT
Nautical Twilight 4:57 AM MDT 10:15 PM MDT
Astronomical Twilight 3:58 AM MDT 11:13 PM MDT
Moon 2:44 AM MDT 6:31 PM MDT
Length of Visible Light 15h 40m
Length of Day
14h 23m
Tomorrow will be 3m 58s shorter.
Waning Crescent, 14% of the Moon is Illuminated
Today
Waning Crescent
Aug 25
New
Sep 2
First Quarter
Sep 8
Full
Sep 15
Last Quarter

Yesterday's Extremes

Country Highs Country Lows

Community

WunderPhotos

Upload Photos

1,745,921 photos uploaded!

WunderBlogs® & News

Nearby

Snow Depth

Not available.

Earthquake Activity

City Distance Mag. Time & Date
No recent earthquake activity has been reported nearby.
Minimum magnitude displayed is 2.5.

Coastal Water Temperatures

Place Temperature
No Stations Reporting

Nearby Weather Stations